QPF
0.00 0.00 0.00 0.00 0.00 0.00 0.00 0.00 0.00 0.00 0.00 0.00 0.00 0.00 0.00 0.00 0.00 0.00 0.00 0.00 0.00 0.00 0.00 0.00 0.00 0.00 0.00 0.00 0.00 0.00 0.00 0.00 0.00 0.00 0.00 0.00 0.00 0.00 0.00 0.00 0.00 0.00 0.01 0.00 0.00
0.00 0.00 0.00 0.00 0.00 0.00 0.00 0.00 0.00 0.00 0.00 0.00 0.00 0.00 0.00 0.00 0.00 0.00 0.00 0.00 0.00 0.00 0.00 0.00 0.00 0.00 0.00 0.00 0.00 0.00 0.00 0.00 0.00 0.00 0.00 0.00 0.00 0.00 0.00 0.00 0.00 0.00 0.00 0.00 0.00
0.00 0.00 0.00 0.00 0.00 0.00 0.00 0.00 0.00 0.00 0.00 0.00 0.00 0.00 0.00 0.00 0.00 0.00 0.00 0.00 0.00 0.00 0.00 0.00 0.00 0.00 0.00 0.00 0.00 0.00 0.00 0.00 0.00 0.00 0.00 0.00 0.00 0.00 0.00 0.00 0.00 0.00 0.00 0.00 0.00
0.00 0.00 0.00 0.00 0.00 0.00 0.00 0.00 0.00 0.00 0.00 0.00 0.00 0.00 0.00 0.00 0.00 0.00 0.00 0.00 0.00 0.00 0.00 0.00 0.00 0.00 0.01 0.00 0.00 0.00 0.00 0.00 0.00 0.00 0.00 0.00 0.00 0.00 0.00 0.00 0.00 0.00 0.00 0.00 0.00
0.00 0.00 0.00 0.00 0.00 0.00 0.00 0.00 0.00 0.00 0.00 0.00 0.00 0.00 0.00 0.00 0.00 0.00 0.00 0.00 0.00 0.00 0.00 0.00 0.00 0.00 0.01 0.01 0.01 0.02 0.00 0.00 0.00 0.00 0.00 0.00 0.00 0.00 0.00 0.00 0.00 0.00 0.00 0.00 0.00
0.00 0.00 0.00 0.00 0.00 0.00 0.00 0.00 0.00 0.00 0.00 0.00 0.00 0.00 0.00 0.00 0.00 0.00 0.00 0.00 0.00 0.00 0.00 0.00 0.00 0.00 0.00 0.01 0.02 0.01 0.00 0.00 0.00 0.00 0.00 0.00 0.00 0.01 0.00 0.00 0.00 0.00 0.00 0.00 0.00
0.00 0.00 0.00 0.00 0.00 0.00 0.00 0.00 0.00 0.00 0.00 0.00 0.00 0.00 0.00 0.00 0.00 0.00 0.00 0.00 0.00 0.00 0.00 0.00 0.00 0.00 0.00 0.01 0.00 0.00 0.00 0.00 0.00 0.00 0.00 0.01 0.01 0.02 0.00 0.00 0.00 0.00 0.00 0.00 0.00
0.00 0.00 0.00 0.00 0.00 0.00 0.00 0.00 0.00 0.00 0.00 0.00 0.00 0.00 0.00 0.00 0.00 0.00 0.00 0.00 0.00 0.00 0.00 0.00 0.00 0.00 0.00 0.00 0.00 0.00 0.02 0.04 0.02 0.00 0.00 0.01 0.06 0.02 0.00 0.00 0.00 0.00 0.00 0.00 0.00
0.00 0.00 0.00 0.00 0.00 0.00 0.00 0.00 0.00 0.00 0.00 0.00 0.00 0.00 0.00 0.00 0.00 0.00 0.00 0.00 0.00 0.00 0.00 0.00 0.00 0.00 0.00 0.00 0.01 0.02 0.01 0.01 0.00 0.00 0.00 0.00 0.04 0.01 0.00 0.00 0.00 0.00 0.00 0.00 0.00
0.00 0.00 0.00 0.00 0.00 0.00 0.00 0.00 0.00 0.00 0.00 0.00 0.00 0.00 0.00 0.00 0.00 0.00 0.00 0.00 0.00 0.00 0.00 0.00 0.00 0.00 0.00 0.00 0.01 0.03 0.02 0.01 0.00 0.00 0.00 0.00 0.00 0.00 0.00 0.00 0.00 0.00 0.00 0.00 0.00
0.00 0.00 0.00 0.00 0.00 0.00 0.00 0.00 0.00 0.00 0.00 0.00 0.00 0.00 0.00 0.00 0.00 0.00 0.00 0.00 0.00 0.00 0.00 0.00 0.00 0.00 0.00 0.00 0.00 0.02 0.01 0.00 0.00 0.00 0.00 0.00 0.00 0.00 0.00 0.00 0.00 0.00 0.00 0.00 0.00
0.00 0.00 0.00 0.00 0.00 0.00 0.00 0.00 0.00 0.00 0.00 0.00 0.00 0.00 0.00 0.00 0.00 0.00 0.00 0.00 0.00 0.00 0.00 0.00 0.00 0.00 0.00 0.00 0.00 0.00 0.00 0.00 0.00 0.00 0.00 0.00 0.00 0.00 0.00 0.00 0.00 0.00 0.00 0.00 0.00
0.00 0.00 0.00 0.00 0.00 0.00 0.00 0.00 0.00 0.00 0.00 0.00 0.00 0.00 0.00 0.00 0.00 0.00 0.00 0.00 0.00 0.00 0.00 0.00 0.00 0.00 0.00 0.00 0.00 0.00 0.00 0.00 0.00 0.00 0.00 0.00 0.00 0.00 0.01 0.02 0.00 0.00 0.00 0.00 0.00
0.00 0.00 0.00 0.00 0.00 0.00 0.00 0.00 0.00 0.00 0.00 0.00 0.00 0.00 0.00 0.00 0.00 0.00 0.00 0.00 0.00 0.00 0.00 0.00 0.00 0.00 0.00 0.00 0.00 0.00 0.00 0.00 0.00 0.00 0.00 0.00 0.00 0.00 0.00 0.03 0.00 0.00 0.00 0.00 0.00
0.00 0.00 0.00 0.00 0.00 0.00 0.00 0.00 0.00 0.00 0.00 0.00 0.00 0.00 0.00 0.00 0.00 0.00 0.00 0.00 0.00 0.00 0.00 0.00 0.00 0.00 0.00 0.00 0.00 0.00 0.00 0.00 0.00 0.00 0.00 0.00 0.00 0.00 0.00 0.00 0.00 0.00 0.00 0.00 0.00
0.00 0.00 0.00 0.00 0.00 0.00 0.00 0.00 0.00 0.00 0.00 0.00 0.00 0.00 0.00 0.00 0.00 0.00 0.00 0.00 0.00 0.00 0.00 0.00 0.00 0.00 0.00 0.00 0.00 0.00 0.00 0.00 0.00 0.00 0.00 0.00 0.00 0.00 0.00 0.00 0.00 0.02 0.00 0.00 0.00
0.00 0.00 0.00 0.00 0.00 0.00 0.00 0.00 0.00 0.00 0.00 0.00 0.00 0.00 0.00 0.00 0.00 0.00 0.00 0.00 0.00 0.00 0.00 0.00 0.00 0.00 0.00 0.00 0.00 0.00 0.00 0.00 0.00 0.00 0.00 0.00 0.00 0.00 0.00 0.00 0.00 0.00 0.00 0.00 0.00
0.00 0.00 0.00 0.00 0.00 0.00 0.00 0.00 0.00 0.00 0.00 0.00 0.00 0.00 0.00 0.00 0.00 0.00 0.00 0.00 0.00 0.00 0.00 0.00 0.00 0.00 0.00 0.00 0.00 0.00 0.00 0.00 0.00 0.00 0.00 0.00 0.00 0.00 0.00 0.00 0.00 0.00 0.00 0.00 0.00
0.00 0.00 0.00 0.00 0.00 0.00 0.00 0.00 0.00 0.00 0.00 0.00 0.00 0.00 0.00 0.00 0.00 0.00 0.00 0.00 0.00 0.00 0.00 0.00 0.00 0.00 0.00 0.00 0.00 0.00 0.00 0.00 0.00 0.00 0.00 0.00 0.00 0.00 0.00 0.00 0.00 0.00 0.00 0.00 0.00
0.00 0.00 0.00 0.00 0.00 0.00 0.00 0.00 0.00 0.00 0.00 0.00 0.00 0.00 0.00 0.00 0.00 0.00 0.00 0.00 0.00 0.00 0.00 0.00 0.00 0.00 0.00 0.00 0.00 0.00 0.00 0.00 0.00 0.00 0.00 0.00 0.00 0.00 0.00 0.00 0.00 0.00 0.00 0.00 0.00
0.00 0.00 0.00 0.00 0.00 0.00 0.00 0.00 0.00 0.00 0.00 0.00 0.00 0.00 0.00 0.00 0.00 0.00 0.00 0.00 0.00 0.00 0.00 0.00 0.00 0.00 0.00 0.00 0.00 0.00 0.00 0.00 0.00 0.00 0.00 0.00 0.00 0.00 0.00 0.00 0.00 0.00 0.00 0.00 0.00
0.00 0.00 0.00 0.00 0.00 0.00 0.00 0.00 0.00 0.00 0.00 0.00 0.00 0.00 0.00 0.00 0.00 0.00 0.00 0.00 0.00 0.00 0.00 0.00 0.00 0.00 0.00 0.00 0.00 0.00 0.00 0.00 0.00 0.00 0.00 0.00 0.00 0.00 0.00 0.00 0.00 0.00 0.00 0.00 0.00
0.00 0.00 0.00 0.00 0.00 0.00 0.00 0.00 0.00 0.00 0.00 0.00 0.00 0.00 0.00 0.00 0.00 0.00 0.00 0.00 0.00 0.00 0.00 0.00 0.00 0.00 0.00 0.00 0.00 0.00 0.00 0.00 0.00 0.00 0.00 0.00 0.00 0.00 0.00 0.00 0.00 0.00 0.00 0.00 0.00
0.00 0.00 0.00 0.00 0.00 0.00 0.00 0.00 0.00 0.00 0.00 0.00 0.00 0.00 0.00 0.00 0.00 0.00 0.00 0.00 0.00 0.00 0.00 0.00 0.00 0.00 0.00 0.00 0.00 0.00 0.00 0.00 0.00 0.00 0.00 0.00 0.00 0.00 0.00 0.00 0.00 0.00 0.00 0.00 0.00
0.00 0.00 0.00 0.00 0.00 0.00 0.00 0.00 0.00 0.00 0.00 0.00 0.00 0.00 0.00 0.00 0.00 0.00 0.00 0.00 0.00 0.00 0.00 0.00 0.00 0.00 0.00 0.00 0.00 0.00 0.00 0.00 0.00 0.00 0.00 0.00 0.00 0.00 0.00 0.00 0.00 0.00 0.00 0.00 0.00
0.00 0.00 0.00 0.00 0.00 0.00 0.00 0.00 0.00 0.00 0.00 0.00 0.00 0.00 0.00 0.00 0.00 0.00 0.00 0.00 0.00 0.00 0.00 0.00 0.00 0.00 0.00 0.00 0.00 0.00 0.00 0.00 0.00 0.00 0.00 0.00 0.00 0.00 0.00 0.00 0.00 0.00 0.00 0.00 0.00
0.00 0.00 0.00 0.00 0.00 0.00 0.00 0.00 0.00 0.00 0.00 0.00 0.00 0.00 0.00 0.00 0.00 0.00 0.00 0.00 0.00 0.00 0.00 0.00 0.00 0.00 0.00 0.00 0.00 0.00 0.00 0.00 0.00 0.00 0.00 0.00 0.00 0.00 0.00 0.00 0.00 0.00 0.00 0.00 0.00
MSLP
1014.87 1014.58 1014.11 1013.63 1013.04 1012.61 1012.21 1011.62 1011.27 1010.75 1010.28 1009.77 1009.16 1008.67 1008.13 1007.58 1005.96 1004.92 1003.40 1002.07 1002.45 1002.66 1003.12 1002.16 1001.68 1000.86 1000.33 998.46 997.49 996.45 997.36 997.63 998.71 999.74 1000.68 1000.72 1001.05 1001.09 1001.58 1002.44 1002.87 1004.01 1004.94 1006.48 1007.85
1014.73 1014.41 1014.11 1013.67 1013.08 1012.51 1012.03 1011.58 1011.06 1010.65 1010.05 1009.54 1009.05 1008.47 1008.02 1007.58 1005.79 1003.14 1002.11 1001.91 1002.07 1002.39 1002.48 1000.77 999.51 998.96 998.69 998.02 996.96 996.16 997.37 997.85 998.32 999.45 1000.05 1000.39 1000.90 1001.48 1001.74 1002.09 1002.78 1003.43 1004.74 1006.47 1007.55
1014.67 1014.24 1013.85 1013.51 1013.12 1012.51 1011.91 1011.39 1010.77 1010.38 1009.86 1009.26 1008.73 1008.24 1007.92 1007.57 1004.77 1001.37 1002.05 1002.05 1002.01 1002.12 1001.15 999.85 999.20 998.51 998.16 998.90 997.64 997.69 997.48 998.30 998.67 999.40 999.79 1000.24 1000.81 1001.29 1001.25 1001.46 1002.18 1003.09 1004.66 1006.16 1007.21
1014.56 1014.19 1013.70 1013.21 1012.89 1012.46 1011.90 1011.25 1010.71 1010.15 1009.65 1009.11 1008.64 1008.00 1007.44 1006.53 1003.13 1001.43 1001.86 1002.28 1002.14 1002.21 1001.44 999.79 998.55 998.01 998.92 999.56 999.89 1000.35 997.88 998.46 998.94 999.46 999.87 999.86 1000.07 1000.37 1001.15 1000.93 1001.77 1003.12 1004.37 1005.56 1006.46
1014.44 1014.02 1013.53 1013.04 1012.63 1012.19 1011.76 1011.15 1010.56 1010.09 1009.46 1008.95 1008.61 1008.14 1006.33 1004.48 1001.31 1001.52 1002.04 1002.28 1002.60 1002.26 1001.02 999.44 998.25 997.50 998.22 999.85 1000.43 1000.60 998.70 998.90 999.25 999.41 999.69 1000.04 1000.05 1000.44 1000.93 1001.34 1001.96 1003.24 1004.27 1005.02 1005.73
1014.28 1013.73 1013.24 1012.82 1012.33 1011.85 1011.42 1010.99 1010.37 1009.73 1009.23 1008.75 1008.41 1008.20 1006.67 1002.63 999.86 1000.89 1001.17 1001.87 1001.33 1001.27 1000.27 998.93 997.86 997.20 997.46 998.67 999.35 999.50 999.41 999.66 999.78 999.40 999.55 1000.13 1000.89 1000.77 1000.84 1001.33 1001.89 1002.94 1004.10 1004.65 1005.23
1014.07 1013.48 1012.99 1012.51 1012.03 1011.53 1011.04 1010.60 1010.05 1009.40 1008.81 1008.45 1008.27 1007.59 1004.69 1001.35 999.83 999.81 1000.32 1000.42 1000.36 999.89 999.23 998.29 997.42 997.35 997.24 998.57 998.27 1001.05 1001.35 1002.19 1001.00 999.54 1001.75 1001.93 1002.98 1002.52 1000.90 1001.10 1001.76 1002.68 1003.63 1004.21 1004.73
1013.94 1013.36 1012.76 1012.21 1011.69 1011.13 1010.72 1010.24 1009.56 1008.98 1008.35 1008.02 1007.92 1006.76 1002.86 999.74 999.73 999.70 999.78 999.39 999.26 999.05 998.72 998.40 998.06 997.94 997.42 998.01 998.46 1002.72 1004.50 1005.04 1001.77 1000.20 1002.01 1002.56 1004.98 1002.26 1001.30 1001.06 1001.56 1002.36 1003.14 1003.71 1004.20
1013.70 1013.08 1012.52 1011.93 1011.39 1010.82 1010.22 1009.66 1008.91 1008.38 1007.93 1007.73 1007.05 1005.16 1001.44 1000.38 999.86 999.48 999.36 999.01 998.56 998.49 998.49 998.14 998.03 997.89 997.41 997.32 1000.89 1004.24 1005.70 1004.86 1001.63 999.35 999.55 1000.48 1002.41 1001.93 1000.63 1000.85 1001.28 1001.94 1002.57 1003.05 1003.59
1013.39 1012.81 1012.23 1011.64 1011.09 1010.58 1009.70 1008.59 1007.81 1007.97 1007.20 1006.52 1005.23 1003.73 1000.69 999.23 998.64 998.77 998.81 998.98 998.51 998.00 997.94 997.93 997.68 997.46 997.06 996.90 1000.75 1004.34 1006.91 1003.36 1001.77 997.69 997.64 997.63 998.28 999.11 999.66 1000.01 1000.62 1001.35 1001.87 1002.39 1002.91
1013.12 1012.50 1011.93 1011.36 1010.85 1010.62 1009.37 1007.04 1007.65 1006.63 1005.20 1002.56 1001.47 1000.46 999.30 998.96 999.24 999.23 999.09 998.83 998.72 998.29 997.52 997.31 997.16 996.66 996.28 996.37 999.16 1001.42 1001.56 1001.22 998.83 996.49 996.50 996.41 996.53 997.14 998.32 999.17 999.82 1000.30 1001.02 1001.59 1002.19
1012.71 1012.15 1011.60 1011.01 1010.48 1010.38 1010.22 1006.76 1004.67 1004.09 1002.78 1001.53 1000.50 1000.02 999.67 999.60 999.17 998.44 998.61 998.48 998.34 997.92 997.55 997.11 996.25 996.20 995.87 995.74 997.48 998.51 998.32 997.39 995.53 995.56 995.28 995.18 995.51 996.31 997.54 998.26 998.82 999.53 1000.02 1000.58 1001.38
1012.37 1011.77 1011.23 1010.69 1010.05 1009.57 1007.00 1004.86 1004.18 1003.52 1002.07 1000.00 999.64 999.30 999.06 999.31 998.73 997.73 998.02 998.09 997.81 997.64 997.25 996.50 995.84 995.45 995.26 995.35 995.41 995.39 995.34 995.01 994.70 994.70 994.42 994.53 995.46 996.67 998.00 998.17 998.47 998.77 999.33 999.90 1000.43
1012.05 1011.53 1010.99 1010.43 1010.07 1005.66 1004.52 1004.33 1003.87 1003.51 1001.64 999.29 999.06 998.58 998.99 999.09 998.27 997.61 997.34 997.90 997.56 997.14 996.72 996.30 995.71 995.21 994.67 994.63 994.72 994.60 994.42 994.33 994.53 994.72 994.22 994.17 994.58 997.00 998.06 999.52 998.59 998.55 998.30 999.16 999.84
1011.76 1011.19 1010.78 1010.76 1008.69 1005.10 1004.28 1004.02 1004.06 1003.32 999.92 998.63 998.13 998.66 998.26 998.31 997.24 997.38 997.81 997.70 997.31 996.77 996.81 995.98 995.43 995.06 994.58 994.56 994.64 994.60 994.59 994.58 994.46 994.55 994.52 994.44 994.54 995.85 998.67 1000.06 1000.85 998.16 997.72 997.92 998.84
1011.47 1010.87 1010.49 1009.74 1008.16 1004.88 1004.10 1003.88 1003.45 1002.18 998.75 998.03 997.85 997.66 997.83 997.81 997.34 997.28 997.88 998.06 997.35 997.20 996.50 995.95 995.38 995.02 994.72 994.67 994.72 995.06 995.02 994.89 994.84 994.67 994.62 994.49 994.34 994.58 996.34 997.05 998.09 998.18 997.92 996.69 997.22
1011.20 1010.67 1010.51 1008.07 1005.00 1004.32 1004.12 1003.39 1002.02 999.88 998.58 997.84 997.27 997.06 996.52 996.66 996.81 997.06 997.23 997.67 997.61 997.14 996.47 995.95 995.66 995.28 995.51 995.45 995.44 995.17 995.02 994.85 994.91 994.61 994.05 993.65 993.35 993.21 995.02 995.03 996.58 996.31 996.12 995.77 996.03
1010.65 1010.39 1007.95 1006.82 1005.27 1004.33 1003.87 1002.78 1000.74 999.08 998.33 998.39 997.86 997.42 996.59 996.73 996.39 996.76 996.65 996.83 997.05 996.89 996.14 995.53 994.74 994.46 994.78 995.20 995.39 995.04 995.02 994.82 994.59 994.37 993.69 992.93 992.49 993.23 994.42 994.95 994.68 993.97 994.46 994.08 994.69
1009.89 1007.97 1006.83 1004.19 1004.29 1004.34 1003.35 1001.23 999.44 999.30 999.11 998.19 997.58 996.98 996.69 997.14 997.12 996.62 996.39 996.60 996.73 997.12 996.99 996.31 995.37 994.41 994.39 994.32 995.12 995.33 995.24 995.05 994.61 994.23 993.77 993.20 992.33 992.68 993.37 993.95 996.87 992.69 992.74 992.90 993.49
1009.41 1006.18 1003.92 1003.15 1003.27 1003.36 1002.48 1000.66 1000.10 1000.03 999.74 998.85 997.93 997.62 996.99 997.04 997.19 996.74 996.80 997.60 997.81 998.19 998.36 997.64 996.56 995.61 994.99 994.95 995.38 995.66 995.67 995.30 994.84 994.67 994.22 993.69 992.90 992.25 993.38 994.04 992.77 991.85 991.89 992.49 993.13
1008.75 1005.05 1002.79 1002.56 1002.57 1002.35 1001.13 1000.29 1000.44 1000.34 1000.21 999.47 998.77 998.32 998.18 998.04 998.05 997.29 997.45 998.42 998.93 999.11 998.90 998.16 997.40 996.70 995.84 995.18 994.96 995.07 995.38 995.59 995.56 994.93 994.06 993.47 992.61 991.72 992.44 992.98 992.23 991.46 992.08 992.43 993.02
1007.25 1003.50 1002.39 1002.52 1001.85 1000.58 1000.14 1000.88 1001.43 1000.35 1000.50 1000.04 1000.12 999.61 999.23 999.23 999.04 998.39 998.24 999.00 1000.09 1000.29 999.74 999.09 998.56 997.35 996.16 995.30 995.05 994.74 995.05 994.92 994.59 995.00 994.74 994.12 992.83 991.80 992.17 991.72 991.87 992.10 992.72 993.08 993.41
1007.64 1003.29 1002.19 1002.12 1001.08 1000.08 1001.08 1001.14 1001.20 1000.67 1000.73 1000.39 1000.16 1000.45 1000.26 1000.12 1000.08 999.71 999.48 999.70 1000.54 1001.05 1001.12 1000.76 999.82 998.57 997.09 996.51 996.23 995.94 995.77 995.64 994.95 994.47 994.14 993.67 992.76 991.82 991.77 991.92 992.06 992.19 992.61 993.14 993.69
1008.05 1003.54 1002.06 1002.02 1001.90 1001.37 1001.13 1001.01 1001.07 1001.66 1001.69 1001.64 1001.33 1001.17 1001.05 1000.69 1000.31 1000.42 1000.24 1000.00 1000.53 1001.14 1001.99 1002.10 1001.14 1000.03 998.81 997.62 997.81 997.34 996.90 996.60 995.77 994.99 994.51 993.82 993.15 992.63 992.31 992.23 992.33 992.70 993.45 993.92 994.24
1007.52 1004.92 1004.56 1002.90 1002.34 1002.56 1002.26 1002.07 1001.75 1001.58 1001.94 1002.13 1002.02 1001.78 1001.80 1001.81 1001.35 1000.87 1000.56 1000.31 1000.45 1001.64 1001.65 1001.65 1000.98 1000.34 999.60 998.96 998.46 997.96 997.55 996.93 996.47 995.88 995.26 994.59 993.99 993.57 993.31 993.19 993.23 993.80 994.18 994.62 995.03
1009.00 1007.87 1006.56 1004.95 1003.83 1003.58 1002.99 1002.57 1002.52 1002.31 1002.69 1002.57 1002.39 1002.41 1002.62 1002.96 1002.74 1002.38 1002.12 1001.85 1001.58 1001.39 1001.43 1001.11 1000.76 1000.66 1000.21 999.75 998.86 998.03 997.58 997.19 996.70 996.28 995.67 995.24 994.72 994.29 993.87 993.91 994.16 994.41 994.89 995.51 996.04
1011.26 1009.55 1008.20 1005.98 1004.53 1003.69 1003.36 1003.54 1003.62 1003.99 1004.00 1003.54 1003.50 1003.62 1003.51 1003.41 1003.89 1003.78 1003.41 1002.87 1002.41 1002.05 1001.68 1001.41 1001.15 1001.02 1000.46 1000.00 999.08 998.19 997.39 996.66 995.98 995.83 995.72 995.48 995.43 995.35 994.31 994.45 994.47 994.86 995.32 996.03 996.51
Thickness
5785 5788 5792 5796 5800 5804 5807 5812 5814 5820 5824 5828 5833 5838 5844 5850 5865 5876 5875 5893 5893 5892 5889 5892 5893 5894 5895 5893 5899 5912 5862 5847 5840 5829 5823 5843 5829 5845 5847 5826 5828 5821 5813 5809 5807
5784 5787 5790 5794 5799 5804 5808 5812 5816 5819 5825 5830 5834 5839 5844 5849 5864 5878 5899 5901 5899 5896 5888 5892 5892 5900 5883 5871 5885 5899 5861 5855 5869 5857 5842 5845 5840 5835 5830 5825 5821 5823 5824 5815 5809
5782 5786 5790 5793 5796 5802 5807 5812 5817 5821 5826 5832 5836 5841 5844 5848 5862 5885 5899 5900 5900 5899 5902 5907 5905 5900 5881 5867 5889 5888 5864 5872 5871 5869 5866 5852 5845 5847 5834 5823 5830 5820 5816 5813 5807
5780 5783 5788 5793 5795 5800 5805 5810 5816 5821 5826 5831 5836 5842 5847 5854 5835 5893 5899 5898 5900 5900 5896 5899 5898 5885 5870 5861 5874 5845 5889 5881 5874 5874 5864 5857 5861 5850 5844 5847 5853 5840 5830 5820 5811
5778 5781 5786 5790 5794 5798 5803 5809 5815 5820 5825 5830 5834 5839 5856 5853 5870 5899 5896 5897 5896 5892 5888 5892 5886 5892 5869 5861 5865 5848 5886 5888 5882 5879 5872 5871 5860 5856 5851 5860 5858 5845 5834 5824 5819
5775 5780 5784 5788 5793 5797 5802 5807 5813 5819 5824 5830 5833 5836 5845 5840 5908 5904 5906 5896 5899 5892 5892 5900 5896 5908 5894 5876 5872 5887 5894 5888 5883 5880 5879 5862 5855 5861 5859 5866 5854 5844 5832 5830 5825
5773 5778 5782 5786 5791 5796 5801 5806 5812 5818 5825 5829 5831 5838 5846 5856 5907 5912 5907 5901 5905 5903 5892 5910 5916 5901 5903 5868 5904 5863 5842 5835 5861 5883 5839 5851 5822 5823 5869 5868 5853 5844 5837 5834 5831
5769 5774 5779 5784 5789 5794 5799 5805 5812 5818 5824 5828 5830 5838 5842 5902 5909 5901 5904 5902 5912 5913 5909 5915 5917 5900 5896 5900 5898 5831 5823 5781 5846 5873 5842 5838 5770 5834 5870 5864 5850 5845 5840 5836 5835
5768 5772 5777 5782 5787 5793 5799 5805 5812 5818 5823 5826 5832 5839 5841 5896 5881 5898 5903 5889 5904 5908 5910 5915 5906 5888 5894 5886 5827 5791 5772 5797 5836 5884 5877 5857 5804 5833 5876 5864 5852 5848 5844 5840 5838
5768 5772 5776 5781 5785 5791 5799 5809 5816 5817 5825 5831 5840 5829 5859 5860 5887 5897 5905 5897 5890 5895 5890 5888 5883 5869 5879 5881 5802 5776 5753 5792 5800 5892 5892 5882 5864 5875 5875 5870 5859 5853 5851 5846 5842
5769 5773 5777 5781 5785 5787 5800 5823 5812 5811 5824 5837 5845 5847 5861 5882 5892 5878 5891 5884 5883 5879 5858 5879 5856 5849 5874 5895 5859 5831 5809 5807 5849 5903 5889 5883 5885 5877 5883 5876 5866 5863 5857 5853 5848
5772 5775 5778 5783 5787 5788 5789 5810 5822 5827 5812 5846 5853 5853 5865 5871 5848 5871 5890 5861 5858 5845 5866 5860 5847 5877 5894 5902 5866 5853 5850 5854 5904 5903 5896 5891 5889 5893 5885 5883 5879 5870 5867 5863 5859
5775 5778 5781 5785 5790 5795 5814 5822 5838 5838 5812 5838 5850 5847 5853 5861 5846 5859 5875 5865 5852 5845 5852 5847 5868 5894 5892 5885 5885 5893 5884 5887 5885 5894 5903 5893 5873 5875 5875 5882 5884 5884 5880 5875 5868
5779 5781 5784 5788 5790 5827 5822 5834 5841 5839 5793 5819 5831 5846 5852 5853 5840 5877 5883 5865 5853 5843 5856 5856 5882 5879 5884 5881 5890 5867 5904 5899 5882 5869 5852 5900 5848 5852 5836 5843 5877 5881 5884 5878 5874
5782 5785 5787 5786 5801 5816 5827 5838 5836 5827 5773 5831 5838 5868 5860 5840 5855 5857 5880 5863 5841 5849 5854 5848 5865 5867 5867 5875 5890 5871 5895 5886 5885 5869 5865 5870 5864 5857 5843 5802 5808 5878 5884 5888 5883
5785 5789 5791 5797 5803 5827 5836 5837 5828 5784 5779 5820 5842 5835 5833 5841 5847 5856 5851 5864 5867 5846 5857 5858 5887 5880 5877 5886 5887 5887 5875 5875 5876 5870 5829 5862 5866 5876 5859 5858 5853 5861 5867 5890 5894
5788 5791 5791 5806 5817 5835 5836 5822 5786 5783 5834 5819 5828 5840 5844 5837 5838 5841 5834 5826 5818 5809 5820 5846 5853 5873 5874 5855 5871 5870 5857 5824 5819 5826 5827 5883 5873 5890 5879 5893 5873 5865 5871 5891 5902
5793 5794 5812 5818 5828 5836 5826 5800 5772 5812 5816 5833 5832 5835 5832 5840 5844 5838 5836 5824 5841 5837 5832 5826 5826 5864 5875 5855 5844 5855 5857 5829 5798 5813 5839 5889 5864 5888 5892 5890 5910 5903 5897 5911 5908
5799 5816 5816 5838 5837 5833 5810 5787 5806 5810 5821 5822 5833 5825 5829 5832 5832 5838 5839 5831 5843 5840 5811 5815 5825 5878 5881 5882 5866 5844 5832 5868 5845 5859 5843 5862 5888 5909 5902 5883 5854 5920 5923 5915 5913
5803 5820 5831 5849 5846 5828 5802 5788 5807 5823 5823 5826 5809 5826 5819 5826 5823 5834 5829 5834 5826 5833 5836 5822 5802 5850 5863 5871 5864 5849 5861 5827 5844 5804 5799 5836 5852 5867 5877 5869 5903 5918 5922 5913 5914
5806 5811 5841 5854 5846 5816 5793 5806 5812 5826 5823 5813 5811 5813 5817 5813 5817 5826 5824 5822 5824 5820 5829 5828 5820 5821 5848 5843 5839 5845 5832 5838 5842 5839 5818 5816 5844 5908 5890 5893 5896 5910 5910 5909 5905
5813 5804 5846 5849 5807 5822 5811 5811 5799 5818 5824 5817 5814 5811 5807 5808 5803 5813 5813 5810 5817 5812 5798 5819 5806 5797 5823 5861 5872 5863 5845 5851 5829 5815 5834 5830 5837 5909 5900 5910 5906 5902 5896 5902 5904
5798 5820 5846 5839 5795 5812 5811 5809 5812 5812 5809 5810 5806 5809 5812 5799 5784 5801 5807 5819 5813 5800 5786 5798 5790 5775 5799 5829 5840 5830 5838 5842 5852 5853 5829 5819 5838 5909 5910 5902 5905 5901 5903 5895 5896
5795 5798 5821 5824 5819 5806 5800 5801 5798 5810 5802 5804 5800 5806 5797 5792 5805 5789 5793 5811 5811 5802 5789 5789 5779 5775 5769 5792 5809 5798 5815 5825 5830 5819 5826 5834 5847 5871 5883 5887 5891 5892 5889 5888 5885
5797 5793 5795 5785 5796 5795 5798 5795 5788 5787 5802 5801 5789 5791 5785 5771 5780 5783 5796 5801 5807 5784 5793 5788 5766 5781 5790 5798 5801 5800 5803 5812 5810 5821 5808 5825 5831 5852 5866 5871 5872 5875 5875 5872 5871
5769 5765 5778 5782 5792 5784 5775 5783 5781 5787 5784 5779 5779 5785 5782 5765 5770 5765 5776 5778 5776 5790 5784 5793 5766 5775 5768 5787 5794 5791 5804 5807 5809 5814 5820 5828 5829 5866 5874 5874 5861 5862 5859 5853 5856
5758 5768 5764 5769 5779 5779 5777 5775 5773 5775 5776 5783 5777 5770 5765 5771 5775 5777 5780 5781 5780 5773 5771 5772 5767 5759 5746 5775 5779 5767 5792 5804 5814 5820 5821 5808 5835 5856 5857 5856 5856 5854 5849 5849 5852